SCP
0 0 0 0 0 0 0 0 0 0 0 0 0 0 0 0 0 0 0 0 0 0
0 0 0 0 0 0 0 0 0 0 0 0 0 0 0 0 0 0 0 0 0 0
0 0 0 0 0 0 0 0 0 0 0 0 0 0 0 0 0 0 0 0 0 0
0 0 0 0 0 0 0 0 0 0 0 0 0 0 0 0 0 0 0 0 0 0
0 0 0 0 0 0 0 0 0 0 0 0 0 0 0 0 0 0 0 0 0 0
0 0 0 0 0 0 0 0 0 0 0 0 0 0 0 0 0 0 0 0 0 0
0 0 0 0 0 0 0 0 0 0 0 0 0 0 0 0 0 0 0 0 0 0
0 0 0 0 0 0 0 0 0 0 0 0 0 0 0 0 0 0 0 0 0 0
0 0 0 0 0 0 0 0 0 0 0 0 0 0 0 0 0 0 0 0 0 0
0 0 0 0 0 0 0 0 0 0 0 0 0 0 0 0 0 0 0 0 0 0
0 0 0 0 0 0 0 0 0 0 0 0 0 0 0 0 0 0 0 0 0 0
0 0 0 0 0 0 0 0 0 0 0 0 0 0 0 0 -0 -0 -0 -0 -0 0
0 0 0 0 0 0 0 0 0 0 0 0 -0 -0 -0 -0 0 0 0 0 0 0
0 0 0 0 0 0 0 -0 -0 0 0 -0 -0 -0 -0 -0 0 0 0 0 0 0
Wind_Speed_500mb
17 25 24 24 26 28 27 26 27 27 29 31 33 39 43 47 55 52 62 63 59 68
11 21 22 24 25 25 24 23 19 19 22 24 26 28 30 38 49 46 59 55 54 64
9 15 17 20 20 19 14 12 15 19 22 22 24 27 30 27 36 43 43 47 56 57
3 8 12 15 16 15 17 18 19 20 21 22 20 23 24 25 25 26 27 24 32 33
7 4 6 9 12 14 17 19 20 22 26 28 28 28 28 28 30 27 31 38 36 36
16 13 13 15 16 17 20 28 32 35 36 40 44 47 48 46 48 51 53 49 45 43
30 29 29 30 31 33 37 45 52 55 57 57 56 54 53 50 50 50 47 46 43 42
44 46 49 54 57 61 62 63 64 67 68 64 61 57 54 52 51 47 47 46 45 43
53 57 61 61 63 67 70 69 65 64 62 62 62 53 50 49 50 47 43 41 38 34
54 58 58 59 61 62 62 59 59 59 54 54 53 45 41 38 37 36 34 33 30 27
44 48 49 50 52 53 53 52 50 47 45 45 47 38 34 32 31 29 28 26 23 19
37 37 38 41 41 40 40 41 40 38 36 33 35 32 28 24 23 21 20 18 15 13
31 29 28 30 29 30 29 30 31 30 28 27 26 25 22 19 17 15 13 12 10 10
24 21 21 22 23 22 22 22 22 20 20 17 16 14 13 12 10 8 9 9 11 13
Wind_Direction_500mb
221 221 219 226 231 236 242 240 246 244 236 240 244 238 231 228 240 235 239 230 228 230
208 219 218 231 234 237 240 244 239 230 238 232 234 229 235 230 235 231 237 241 234 236
198 215 218 227 236 236 230 221 222 215 218 214 218 216 209 212 231 224 222 228 232 238
146 185 197 215 218 224 218 207 200 189 185 177 184 184 188 212 193 203 195 189 194 199
69 110 173 191 194 188 179 164 157 153 153 151 146 150 152 160 152 152 136 130 126 129
93 109 130 140 138 134 132 131 128 130 130 130 129 131 132 131 130 129 125 125 125 122
102 108 114 117 118 118 118 118 116 115 114 114 114 112 112 114 113 110 108 108 108 106
100 104 109 112 113 113 114 114 114 115 113 108 106 105 104 103 102 105 112 115 112 114
106 106 107 109 112 114 110 108 109 110 114 117 114 115 116 117 118 118 116 114 108 105
110 110 110 112 111 110 112 115 118 119 119 115 110 112 112 110 110 109 107 104 101 97
107 111 114 114 113 114 116 117 116 114 115 115 110 110 107 103 99 96 95 94 94 88
111 113 114 114 114 115 115 114 113 111 108 107 104 104 102 100 96 93 89 88 83 73
121 122 122 117 115 110 109 109 109 111 112 113 113 114 114 112 109 102 94 82 62 38
129 125 121 118 117 117 116 112 112 109 105 99 93 88 81 77 72 65 51 31 13 355
Wind_Speed_850mb
17 25 24 24 26 28 27 26 27 27 29 31 33 39 43 47 55 52 62 63 59 68
11 21 22 24 25 25 24 23 19 19 22 24 26 28 30 38 49 46 59 55 54 64
9 15 17 20 20 19 14 12 15 19 22 22 24 27 30 27 36 43 43 47 56 57
3 8 12 15 16 15 17 18 19 20 21 22 20 23 24 25 25 26 27 24 32 33
7 4 6 9 12 14 17 19 20 22 26 28 28 28 28 28 30 27 31 38 36 36
16 13 13 15 16 17 20 28 32 35 36 40 44 47 48 46 48 51 53 49 45 43
30 29 29 30 31 33 37 45 52 55 57 57 56 54 53 50 50 50 47 46 43 42
44 46 49 54 57 61 62 63 64 67 68 64 61 57 54 52 51 47 47 46 45 43
53 57 61 61 63 67 70 69 65 64 62 62 62 53 50 49 50 47 43 41 38 34
54 58 58 59 61 62 62 59 59 59 54 54 53 45 41 38 37 36 34 33 30 27
44 48 49 50 52 53 53 52 50 47 45 45 47 38 34 32 31 29 28 26 23 19
37 37 38 41 41 40 40 41 40 38 36 33 35 32 28 24 23 21 20 18 15 13
31 29 28 30 29 30 29 30 31 30 28 27 26 25 22 19 17 15 13 12 10 10
24 21 21 22 23 22 22 22 22 20 20 17 16 14 13 12 10 8 9 9 11 13
Wind_Direction_850mb
221 221 219 226 231 236 242 240 246 244 236 240 244 238 231 228 240 235 239 230 228 230
208 219 218 231 234 237 240 244 239 230 238 232 234 229 235 230 235 231 237 241 234 236
198 215 218 227 236 236 230 221 222 215 218 214 218 216 209 212 231 224 222 228 232 238
146 185 197 215 218 224 218 207 200 189 185 177 184 184 188 212 193 203 195 189 194 199
69 110 173 191 194 188 179 164 157 153 153 151 146 150 152 160 152 152 136 130 126 129
93 109 130 140 138 134 132 131 128 130 130 130 129 131 132 131 130 129 125 125 125 122
102 108 114 117 118 118 118 118 116 115 114 114 114 112 112 114 113 110 108 108 108 106
100 104 109 112 113 113 114 114 114 115 113 108 106 105 104 103 102 105 112 115 112 114
106 106 107 109 112 114 110 108 109 110 114 117 114 115 116 117 118 118 116 114 108 105
110 110 110 112 111 110 112 115 118 119 119 115 110 112 112 110 110 109 107 104 101 97
107 111 114 114 113 114 116 117 116 114 115 115 110 110 107 103 99 96 95 94 94 88
111 113 114 114 114 115 115 114 113 111 108 107 104 104 102 100 96 93 89 88 83 73
121 122 122 117 115 110 109 109 109 111 112 113 113 114 114 112 109 102 94 82 62 38
129 125 121 118 117 117 116 112 112 109 105 99 93 88 81 77 72 65 51 31 13 355